Location: São Paulo
(23.5507°S, 46.6334°W)
Time: 14:58:09
(UTC-03:00)

Vanguard 2 - All Passes

Search period start: 18 February 2026 00:00
Search period end: 28 February 2026 00:00
Orbit: 553 x 2897 km, 32.9° (Epoch: 17 February)

Date Brightness Start Highest point End Pass type
(mag) Time Alt. Az. Time Alt. Az. Time Alt. Az.
18 Feb - 00:50:21 10° WSW 01:05:33 46° NW 01:15:59 10° NNE visible
18 Feb - 14:08:46 10° NNW 14:16:20 33° NE 14:27:41 10° ESE daylight
18 Feb - 16:14:51 10° WNW 16:25:37 87° NNE 16:42:25 10° ESE daylight
18 Feb - 18:24:29 10° W 18:38:27 63° S 18:56:13 10° ESE daylight
18 Feb - 20:36:09 10° WSW 20:53:06 65° S 21:09:35 10° E visible
18 Feb - 22:48:39 10° WSW 23:06:40 85° NNW 23:20:24 10° ENE visible
19 Feb - 01:03:03 10° WSW 01:17:07 37° NW 01:27:11 10° NNE visible
19 Feb - 14:19:59 10° NNW 14:27:53 43° NE 14:40:23 10° ESE daylight
19 Feb - 16:26:53 10° WNW 16:37:45 82° SSW 16:54:38 10° ESE daylight
19 Feb - 18:36:52 10° W 18:50:59 61° S 19:08:41 10° ESE visible
19 Feb - 20:48:26 10° WSW 21:05:33 70° SSE 21:22:00 10° E visible
19 Feb - 23:00:51 10° WSW 23:18:40 74° NNW 23:32:16 10° NE visible
20 Feb - 01:16:07 10° W 01:28:39 28° NW 01:38:03 10° N visible
20 Feb - 12:31:03 10° NE 12:32:17 10° NE 12:33:36 10° ENE daylight
20 Feb - 14:31:28 10° NW 14:39:32 55° NE 14:52:51 10° ESE daylight
20 Feb - 16:39:02 10° WNW 16:50:00 73° SSW 17:06:53 10° ESE daylight
20 Feb - 18:49:14 10° WSW 19:03:33 61° S 19:21:10 10° E visible
20 Feb - 21:00:39 10° WSW 21:17:56 76° SSE 21:34:21 10° ENE visible
20 Feb - 23:13:08 10° WSW 23:30:32 63° NW 23:43:56 10° NE visible
21 Feb - 01:29:45 10° W 01:40:11 21° NW 01:48:26 10° N visible
21 Feb - 12:39:26 10° NNE 12:43:43 16° NE 12:49:15 10° E daylight
21 Feb - 14:43:08 10° NW 14:51:19 69° NNE 15:05:10 10° ESE daylight
21 Feb - 16:51:16 10° W 17:02:21 66° SSW 17:19:11 10° ESE daylight
21 Feb - 19:01:34 10° WSW 19:16:05 61° S 19:33:44 10° E visible
21 Feb - 21:12:49 10° WSW 21:30:12 83° SSE 21:46:33 10° ENE visible
21 Feb - 23:25:30 10° WSW 23:42:18 52° NW 23:55:26 10° NE visible
22 Feb - 01:44:27 10° WNW 01:51:44 15° NW 01:57:58 10° NNW night (unlit)
22 Feb - 12:49:52 10° N 12:55:11 24° NE 13:02:46 10° E daylight
22 Feb - 14:54:58 10° WNW 15:03:16 84° NNE 15:17:24 10° ESE daylight
22 Feb - 17:03:33 10° W 17:14:47 62° S 17:31:35 10° ESE daylight
22 Feb - 19:13:51 10° WSW 19:28:35 64° S 19:46:16 10° E visible
22 Feb - 21:24:57 10° WSW 21:42:21 88° NNW 21:58:38 10° ENE visible
22 Feb - 23:38:04 10° WSW 23:53:59 43° NW 00:06:41 10° NNE visible
23 Feb - 13:00:53 10° NNW 13:06:42 33° NE 13:15:39 10° ESE daylight
23 Feb - 15:06:57 10° WNW 15:15:20 83° SSW 15:29:36 10° ESE daylight
23 Feb - 17:15:53 10° W 17:27:16 59° S 17:44:03 10° ESE daylight
23 Feb - 19:26:04 10° WSW 19:41:01 68° SSE 19:58:47 10° E visible
23 Feb - 21:37:07 10° WSW 21:54:24 78° NNW 22:10:32 10° NE visible
23 Feb - 23:50:54 10° W 00:05:38 34° NW 00:17:41 10° NNE visible
24 Feb - 13:12:14 10° NNW 13:18:18 45° NE 13:28:12 10° ESE daylight
24 Feb - 15:19:03 10° WNW 15:27:31 72° SSW 15:41:49 10° ESE daylight
24 Feb - 17:28:11 10° WSW 17:39:45 58° S 17:56:36 10° ESE daylight
24 Feb - 19:38:14 10° WSW 19:53:23 74° SSE 20:11:11 10° ENE visible
24 Feb - 21:49:18 10° WSW 22:06:22 67° NNW 22:22:16 10° NE visible
25 Feb - 00:04:11 10° W 00:17:16 27° NW 00:28:19 10° N visible
25 Feb - 13:23:50 10° NW 13:30:02 61° NE 13:40:33 10° ESE daylight
25 Feb - 15:31:15 10° W 15:39:48 64° SSW 15:54:05 10° ESE daylight
25 Feb - 17:40:27 10° WSW 17:52:14 58° S 18:09:11 10° E daylight
25 Feb - 19:50:21 10° WSW 20:05:38 81° SSE 20:23:29 10° ENE visible
25 Feb - 22:01:36 10° WSW 22:18:14 57° NW 22:33:48 10° NE visible
26 Feb - 00:18:07 10° W 00:28:56 20° NW 00:38:24 10° N visible
26 Feb - 11:31:36 10° NNE 11:34:43 15° NE 11:38:33 10° E daylight
26 Feb - 13:35:37 10° WNW 13:41:55 79° NNE 13:52:47 10° ESE daylight
26 Feb - 15:43:30 10° W 15:52:10 58° S 16:06:27 10° ESE daylight
26 Feb - 17:52:40 10° WSW 18:04:40 61° S 18:21:48 10° E daylight
26 Feb - 20:02:27 10° WSW 20:17:48 90° SSE 20:35:38 10° ENE visible
26 Feb - 22:14:03 10° WSW 22:30:03 47° NW 22:45:06 10° NNE visible
27 Feb - 00:33:24 10° WNW 00:40:42 14° NW 00:47:24 10° NNW visible
27 Feb - 11:42:10 10° N 11:46:15 23° NE 11:51:51 10° E daylight
27 Feb - 13:47:33 10° WNW 13:53:56 84° SSW 14:04:57 10° ESE daylight
27 Feb - 15:55:46 10° W 16:04:34 55° S 16:18:53 10° ESE daylight
27 Feb - 18:04:50 10° WSW 18:17:02 65° SSE 18:34:22 10° E daylight
27 Feb - 20:14:32 10° WSW 20:29:54 81° NNW 20:47:36 10° NE visible
27 Feb - 22:26:43 10° W 22:41:50 38° NW 22:56:10 10° NNE visible
